Find CATCH-1

NORAD ID: 60089 Int'l Des: 2024-116 Owner: CAS Country: CN operational
LEOCIRCULAR

Live Position

Loading 3D Globe...

About CATCH-1

Description loading...

Upcoming Passes

Passes for default location (London). Set your location on the main map for personalized predictions.

Altitude History

Loading altitude history...

Two-Line Element Set

1 60089U 24116B 26104.85046044 .00000828 00000-0 83472-4 0 9997
2 60089 28.9948 157.7403 0005403 110.0181 250.0994 14.83397694 98185
Epoch: Apr 14, 2026 • Age: 10 hours

Current Status

Altitude 613.9 km
Velocity 7.56 km/s
Sub-Earth Point 7.55°N, 15.24°E
Launch Date Jun 22, 2024
Age 1.8 years
Type other

Technical Details

Classification Payload
Mass 20.00 kg
Dry Mass 20.00 kg
Total Mass 20.00 kg
Length 0.30 m
Diameter 0.20 m
Span 0.50 m
Shape Box+2 pan + boom
Manufacturer IMICAS
Bus Type Hunter
Phase Status In Orbit
Owner/State CAS/CN

Most Searched